EW0592 Weather Reports


Display with metric or nautical units.
time (UTC)temp
F
wind
direction
speed
MPH
gust
MPH
rain 1hr
in
rain 24hr
in
rain mn
in
humidity
%
barometer
mb
20260509123059 55 264 4.0 10.0 0.00 0.00 0.00 78 1002.6
20260509121612 55 259 5.0 15.0 0.00 0.00 0.00 79 1002.4
20260509120057 54 273 3.0 9.0 0.00 0.00 0.00 80 1002.6
20260509114556 54 257 4.0 10.0 0.00 0.00 0.00 81 1002.4
20260509113058 54 233 2.0 8.0 0.00 0.00 0.00 81 1002.2
20260509111603 54 223 3.0 7.0 0.00 0.00 0.00 81 1002.2
20260509110054 54 283 4.0 10.0 0.00 0.00 0.00 80 1002.1
20260509104552 54 248 4.0 9.0 0.00 0.01 0.00 80 1001.9
20260509101550 54 212 4.0 8.0 0.00 0.01 0.00 81 1001.8
20260509100044 53 251 2.0 6.0 0.00 0.01 0.00 81 1002.1
20260509094543 54 207 2.0 6.0 0.00 0.01 0.00 81 1002.3
20260509093041 53 250 1.0 5.0 0.00 0.01 0.00 82 1002.6
20260509091540 53 260 2.0 7.0 0.00 0.01 0.00 82 1002.7
20260509090044 53 212 3.0 7.0 0.00 0.01 0.00 82 1002.5
20260509084542 53 278 2.0 6.0 0.00 0.01 0.00 82 1002.7
20260509083046 53 255 1.0 8.0 0.00 0.01 0.00 81 1002.7
20260509081535 53 222 2.0 9.0 0.00 0.01 0.00 81 1002.6
20260509080034 54 224 3.0 9.0 0.00 0.01 0.00 80 1002.6
20260509074532 54 239 2.0 8.0 0.00 0.01 0.00 80 1002.7
20260509073029 54 259 2.0 7.0 0.00 0.01 0.00 79 1002.9
20260509071526 54 260 1.0 6.0 0.00 0.01 0.00 78 1003.1
20260509070025 55 276 2.0 8.0 0.00 0.01 0.00 77 1003.4
20260509064522 55 194 3.0 8.0 0.00 0.01 0.00 77 1003.5
20260509063021 55 257 3.0 9.0 0.00 0.01 0.00 76 1003.7
20260509061522 56 228 2.0 11.0 0.00 0.01 0.00 76 1003.7
20260509060017 56 242 6.0 10.0 0.00 0.01 0.00 76 1004.0
20260509054515 56 232 4.0 9.0 0.00 0.01 0.00 76 1004.1
20260509053013 57 264 2.0 11.0 0.00 0.01 0.00 75 1004.0
20260509051511 57 269 4.0 11.0 0.00 0.01 0.00 74 1004.0
20260509050109 57 244 3.0 10.0 0.00 0.01 0.00 73 1004.1
20260509044508 57 205 2.0 9.0 0.00 0.01 0.01 72 1004.0
20260509043007 58 232 3.0 9.0 0.00 0.01 0.01 71 1004.1
20260509041507 58 218 5.0 14.0 0.00 0.01 0.01 69 1004.0
20260509040005 57 245 5.0 14.0 0.00 0.01 0.01 69 1004.0
20260509034505 57 209 1.0 8.0 0.00 0.01 0.01 69 1004.3
20260509033003 55 210 4.0 7.0 0.00 0.01 0.01 68 1004.2
20260509031502 55 208 2.0 5.0 0.00 0.01 0.01 67 1004.3
20260509030001 55 207 2.0 5.0 0.00 0.01 0.01 66 1004.4
20260509024501 55 133 0.0 2.0 0.00 0.01 0.01 65 1004.3
20260509023103 55 133 0.0 3.0 0.00 0.01 0.01 64 1004.5
20260509021600 56 131 1.0 3.0 0.00 0.01 0.01 64 1004.5
20260509020100 56 123 1.0 3.0 0.00 0.01 0.01 63 1004.6
20260509014602 57 132 1.0 5.0 0.00 0.01 0.01 62 1004.5
20260509013105 57 107 1.0 4.0 0.00 0.01 0.01 62 1004.5
20260509011558 58 130 3.0 8.0 0.00 0.01 0.01 62 1004.4
20260509010058 59 119 3.0 8.0 0.00 0.01 0.01 61 1004.4
20260509004601 59 141 1.0 6.0 0.00 0.01 0.01 59 1004.3
20260509003055 60 136 2.0 5.0 0.00 0.01 0.01 58 1004.4
20260509001554 60 129 3.0 6.0 0.00 0.01 0.01 58 1004.5
20260509000055 60 109 3.0 6.0 0.00 0.01 0.01 57 1004.6
20260508234552 61 123 3.0 6.0 0.00 0.01 0.01 56 1004.7
20260508233057 61 80 3.0 7.0 0.00 0.01 0.01 56 1004.7
20260508231550 62 117 4.0 8.0 0.00 0.01 0.01 57 1004.8
20260508230057 62 110 5.0 10.0 0.00 0.01 0.01 57 1004.8
20260508224547 61 68 4.0 9.0 0.00 0.01 0.01 58 1004.9
20260508223045 62 124 4.0 9.0 0.00 0.01 0.01 57 1005.0
20260508221549 62 110 4.0 9.0 0.00 0.01 0.01 58 1004.9
20260508220045 61 86 6.0 10.0 0.00 0.01 0.01 60 1005.0
20260508214543 62 108 6.0 11.0 0.00 0.10 0.01 60 1005.2
20260508213040 62 92 5.0 9.0 0.00 0.10 0.01 60 1005.1
20260508211539 62 96 3.0 10.0 0.00 0.10 0.01 60 1005.2
20260508210038 62 104 8.0 12.0 0.00 0.10 0.01 57 1005.4
20260508204536 62 70 6.0 12.0 0.00 0.10 0.01 56 1005.4
20260508203034 63 68 6.0 12.0 0.00 0.10 0.01 53 1005.6
20260508201532 63 77 5.0 11.0 0.00 0.10 0.01 50 1005.8
20260508200038 62 59 3.0 12.0 0.00 0.10 0.01 52 1006.0
20260508194529 62 53 5.0 10.0 0.00 0.10 0.01 49 1006.2
20260508193028 62 101 6.0 12.0 0.00 0.10 0.01 47 1006.4
20260508191529 62 84 5.0 10.0 0.00 0.10 0.01 47 1006.5
20260508190025 63 77 5.0 10.0 0.00 0.10 0.01 47 1006.7
20260508184525 63 20 3.0 8.0 0.00 0.10 0.01 44 1006.8
20260508183021 64 127 5.0 10.0 0.00 0.10 0.01 43 1007.0
20260508181520 65 124 5.0 8.0 0.00 0.10 0.01 45 1007.1
20260508180019 65 133 3.0 8.0 0.00 0.10 0.01 41 1007.4
20260508174522 65 145 2.0 7.0 0.00 0.10 0.01 39 1007.7
20260508173014 64 96 5.0 7.0 0.00 0.10 0.01 36 1007.9
20260508171510 63 233 2.0 7.0 0.00 0.10 0.01 40 1008.1
20260508170007 63 65 2.0 7.0 0.00 0.10 0.01 41 1008.4
20260508164511 63 287 0.0 12.0 0.00 0.10 0.01 41 1008.5
20260508163001 62 118 1.0 5.0 0.00 0.10 0.01 41 1009.0
20260508161559 61 127 1.0 9.0 0.00 0.10 0.01 40 1009.1
20260508160058 61 226 2.0 5.0 0.00 0.10 0.01 45 1009.1
20260508154557 60 179 2.0 7.0 0.00 0.10 0.01 48 1009.3
20260508153051 60 166 3.0 6.0 0.00 0.10 0.01 50 1009.5
20260508151548 59 250 0.0 5.0 0.00 0.10 0.01 55 1009.5
20260508150046 58 236 2.0 5.0 0.00 0.10 0.01 58 1009.7
20260508144541 56 143 0.0 6.0 0.00 0.10 0.01 65 1009.6
20260508143039 56 168 1.0 5.0 0.00 0.10 0.01 67 1009.8
20260508141537 55 113 2.0 5.0 0.00 0.10 0.01 69 1009.8
20260508140032 53 75 0.0 4.0 0.00 0.10 0.01 75 1009.8
20260508134528 52 46 0.0 2.0 0.00 0.10 0.01 78 1009.8
20260508133027 51 89 0.0 2.0 0.00 0.10 0.01 76 1009.6
20260508131521 49 141 0.0 2.0 0.00 0.10 0.01 79 1010.0
20260508130017 48 101 0.0 1.0 0.00 0.10 0.01 83 1009.9
20260508124514 46 80 0.0 1.0 0.00 0.10 0.01 84 1009.9